星链-5244 (STARLINK-5244 )

导读

STARLINK-5244是美国太空探索技术公司(SpaceX)星链计划中的一颗卫星,于2022年10月28日发射升空,属于星链星座组网卫星,旨在为全球提供高速低延迟互联网宽带服务,依托可重复使用火箭技术部署,是星链大规模星座部署中的组成单元,服务全球偏远地区网络覆盖与多场景互联网接入需求。

基本信息
目录编号:
54199
目录名称:
STARLINK-5244
国际标识:
2022-141AU
轨道中心:
EARTH
卫星名称:
星链-5244
卫星全名:
星链-5244 (STARLINK-5244 )
卫星状态:
在轨 (已飞行1326 天)
发射日期:
2022-10-28 UTC
国别 :
美国 (US)
星等 :
--
轨道信息
数据来源 国际轨道数据 AOE轨道数据
星历时间 2026-06-14T23:07:02+0800
15小时前
查看轨道信息
2026-06-09T07:00:00+0800
6天前
查看轨道信息
半长轴 6917.902km 6917.888km
偏心率 0.0001189 0.0000618
轨道倾角 53.160° 53.163°
近地点辐角 84.925° 89.076°
升交点赤经 278.781° 304.281°
平近点角 275.187° 47.437°
近地点 538.942km 539.323km
远地点 540.588km 540.179km
周期 95.438分钟 95.438分钟
每日圈数 15.088332 15.088377
详细信息
固有亮度:
5
最大亮度:
2.5
卫星平台:
Starlink v1.5
覆盖范围:
全球
运营商:
太空探索技术公司
运营商所在国:
美国
制造商(研发单位):
太空探索技术公司
制造商所在国:
美国
使用方式:
暂无
卫星简介
星链(Starlink)计划是由太空探索技术公司(SpaceX)提出的一个巨型低轨卫星互联网星座项目,计划在2019年至2024年间在太空搭建由约1.2万颗卫星组成的“星链”网络,其中1584颗将部署在地球上空550千米处的近地轨道,并从2020年开始工作。该卫星仍在工作。
2D轨道图
3D轨道图
轨道高度分析图
轨道倾角分析图
轨道综合分析图
查看轨道综合分析图